| time (UTC) | temp C | wind direction | speed KPH | gust KPH | rain 1hr cm | rain 24hr cm | rain mn cm | humidity % | barometer mb |
| 20260505223805 | 22 | 92 | 3.2 | 4.8 | 0.00 | 0.00 | 0.00 | 76 | 1015.9 |
| 20260505223304 | 22 | 93 | 6.4 | 9.7 | 0.00 | 0.00 | 0.00 | 76 | 1015.8 |
| 20260505222804 | 21 | 89 | 4.8 | 11.3 | 0.00 | 0.00 | 0.00 | 77 | 1015.8 |
| 20260505222306 | 21 | 85 | 8.0 | 12.9 | 0.00 | 0.00 | 0.00 | 77 | 1015.8 |
| 20260505221305 | 21 | 107 | 6.4 | 11.3 | 0.00 | 0.00 | 0.00 | 78 | 1015.7 |
| 20260505220805 | 21 | 106 | 6.4 | 12.9 | 0.00 | 0.00 | 0.00 | 78 | 1015.7 |
| 20260505220304 | 21 | 105 | 8.0 | 12.9 | 0.00 | 0.00 | 0.00 | 80 | 1015.7 |
| 20260505215305 | 19 | 17 | 1.6 | 9.7 | 0.00 | 0.00 | 0.00 | 80 | 1015.6 |
| 20260505214804 | 19 | 144 | 9.7 | 9.7 | 0.00 | 0.00 | 0.00 | 80 | 1015.6 |
| 20260505214305 | 19 | 144 | 9.7 | 11.3 | 0.00 | 0.00 | 0.00 | 80 | 1015.6 |
| 20260505213805 | 19 | 113 | 8.0 | 14.5 | 0.00 | 0.00 | 0.00 | 81 | 1015.5 |
| 20260505212804 | 18 | 93 | 4.8 | 14.5 | 0.00 | 0.00 | 0.00 | 82 | 1015.4 |
| 20260505212305 | 18 | 124 | 8.0 | 12.9 | 0.00 | 0.00 | 0.00 | 83 | 1015.4 |
| 20260505211805 | 18 | 108 | 6.4 | 11.3 | 0.00 | 0.00 | 0.00 | 83 | 1015.3 |
| 20260505211304 | 17 | 135 | 4.8 | 14.5 | 0.00 | 0.00 | 0.00 | 83 | 1015.3 |
| 20260505210804 | 17 | 122 | 6.4 | 11.3 | 0.00 | 0.00 | 0.00 | 83 | 1015.1 |
| 20260505210305 | 17 | 112 | 4.8 | 9.7 | 0.00 | 0.00 | 0.00 | 83 | 1015.1 |
| 20260505205804 | 17 | 117 | 4.8 | 9.7 | 0.00 | 0.00 | 0.00 | 83 | 1015.1 |
| 20260505204805 | 17 | 121 | 3.2 | 8.0 | 0.00 | 0.00 | 0.00 | 82 | 1014.9 |
| 20260505204304 | 17 | 112 | 3.2 | 11.3 | 0.00 | 0.00 | 0.00 | 82 | 1014.9 |
| 20260505203805 | 17 | 113 | 4.8 | 11.3 | 0.00 | 0.00 | 0.00 | 82 | 1014.9 |
| 20260505202805 | 17 | 102 | 4.8 | 12.9 | 0.00 | 0.00 | 0.00 | 82 | 1014.8 |
| 20260505202307 | 17 | 117 | 4.8 | 11.3 | 0.00 | 0.00 | 0.00 | 82 | 1014.8 |
| 20260505201804 | 17 | 113 | 8.0 | 12.9 | 0.00 | 0.00 | 0.00 | 82 | 1014.8 |
| 20260505201305 | 17 | 107 | 8.0 | 14.5 | 0.00 | 0.00 | 0.00 | 81 | 1014.8 |
| 20260505200305 | 17 | 118 | 8.0 | 14.5 | 0.00 | 0.00 | 0.00 | 81 | 1014.8 |
| 20260505195805 | 17 | 104 | 6.4 | 12.9 | 0.00 | 0.00 | 0.00 | 81 | 1014.9 |
| 20260505195305 | 17 | 115 | 4.8 | 19.3 | 0.00 | 0.00 | 0.00 | 81 | 1014.8 |
| 20260505194806 | 17 | 99 | 4.8 | 16.1 | 0.00 | 0.00 | 0.00 | 81 | 1014.8 |
| 20260505194304 | 17 | 137 | 9.7 | 20.9 | 0.00 | 0.00 | 0.00 | 81 | 1014.7 |
| 20260505193804 | 17 | 121 | 6.4 | 14.5 | 0.00 | 0.00 | 0.00 | 81 | 1014.7 |
| 20260505193304 | 17 | 136 | 9.7 | 19.3 | 0.00 | 0.00 | 0.00 | 80 | 1014.6 |
| 20260505192805 | 17 | 141 | 9.7 | 14.5 | 0.00 | 0.00 | 0.00 | 80 | 1014.7 |
| 20260505192306 | 17 | 160 | 8.0 | 16.1 | 0.00 | 0.00 | 0.00 | 80 | 1014.6 |
| 20260505191805 | 17 | 150 | 9.7 | 20.9 | 0.00 | 0.00 | 0.00 | 79 | 1014.6 |
| 20260505190806 | 17 | 144 | 8.0 | 14.5 | 0.00 | 0.00 | 0.00 | 80 | 1014.5 |
| 20260505190304 | 17 | 142 | 9.7 | 19.3 | 0.00 | 0.00 | 0.00 | 80 | 1014.5 |
| 20260505185805 | 16 | 150 | 9.7 | 14.5 | 0.00 | 0.00 | 0.00 | 79 | 1014.4 |
| 20260505185305 | 16 | 138 | 6.4 | 16.1 | 0.00 | 0.00 | 0.00 | 79 | 1014.4 |
| 20260505184804 | 16 | 139 | 8.0 | 14.5 | 0.00 | 0.00 | 0.00 | 79 | 1014.4 |
| 20260505183804 | 16 | 141 | 4.8 | 11.3 | 0.00 | 0.00 | 0.00 | 79 | 1014.3 |
| 20260505182804 | 16 | 133 | 3.2 | 11.3 | 0.00 | 0.00 | 0.00 | 78 | 1014.3 |
| 20260505181806 | 16 | 138 | 4.8 | 8.0 | 0.00 | 0.00 | 0.00 | 78 | 1014.3 |
| 20260505181304 | 16 | 146 | 4.8 | 11.3 | 0.00 | 0.00 | 0.00 | 78 | 1014.3 |
| 20260505180305 | 16 | 153 | 4.8 | 12.9 | 0.00 | 0.00 | 0.00 | 77 | 1014.2 |
| 20260505175804 | 16 | 156 | 4.8 | 9.7 | 0.00 | 0.00 | 0.00 | 77 | 1014.2 |
| 20260505175305 | 16 | 144 | 3.2 | 9.7 | 0.00 | 0.00 | 0.00 | 77 | 1014.2 |
| 20260505174805 | 16 | 153 | 4.8 | 8.0 | 0.00 | 0.00 | 0.00 | 77 | 1014.2 |
| 20260505174305 | 16 | 150 | 4.8 | 9.7 | 0.00 | 0.00 | 0.00 | 76 | 1014.2 |
| 20260505173805 | 16 | 159 | 4.8 | 9.7 | 0.00 | 0.00 | 0.00 | 76 | 1014.2 |
| 20260505173304 | 16 | 161 | 8.0 | 11.3 | 0.00 | 0.00 | 0.00 | 76 | 1014.2 |
| 20260505172806 | 16 | 155 | 4.8 | 11.3 | 0.00 | 0.00 | 0.00 | 75 | 1014.1 |
| 20260505172306 | 17 | 153 | 3.2 | 8.0 | 0.00 | 0.00 | 0.00 | 75 | 1014.1 |
| 20260505171805 | 17 | 153 | 4.8 | 9.7 | 0.00 | 0.00 | 0.00 | 75 | 1014.2 |
| 20260505171304 | 17 | 157 | 4.8 | 12.9 | 0.00 | 0.00 | 0.00 | 74 | 1014.1 |
| 20260505170806 | 17 | 160 | 8.0 | 11.3 | 0.00 | 0.00 | 0.00 | 74 | 1014.1 |
| 20260505170306 | 17 | 158 | 6.4 | 14.5 | 0.00 | 0.00 | 0.00 | 74 | 1014.2 |
| 20260505165306 | 17 | 138 | 4.8 | 11.3 | 0.00 | 0.00 | 0.00 | 74 | 1014.3 |
| 20260505164804 | 17 | 150 | 4.8 | 11.3 | 0.00 | 0.00 | 0.00 | 73 | 1014.3 |
| 20260505163805 | 17 | 121 | 1.6 | 4.8 | 0.00 | 0.00 | 0.00 | 73 | 1014.5 |
| 20260505163306 | 17 | 121 | 1.6 | 4.8 | 0.00 | 0.00 | 0.00 | 73 | 1014.6 |
| 20260505162804 | 17 | 121 | 1.6 | 4.8 | 0.00 | 0.00 | 0.00 | 74 | 1014.7 |
| 20260505161805 | 17 | 117 | 4.8 | 11.3 | 0.00 | 0.00 | 0.00 | 75 | 1014.7 |
| 20260505161304 | 17 | 125 | 4.8 | 14.5 | 0.00 | 0.00 | 0.00 | 75 | 1014.9 |
| 20260505160804 | 16 | 147 | 4.8 | 11.3 | 0.00 | 0.00 | 0.00 | 76 | 1014.9 |
| 20260505160304 | 16 | 159 | 8.0 | 9.7 | 0.00 | 0.00 | 0.00 | 76 | 1014.9 |
| 20260505153306 | 17 | 159 | 3.2 | 4.8 | 0.00 | 0.00 | 0.00 | 76 | 1015.0 |
| 20260505152305 | 17 | 159 | 3.2 | 4.8 | 0.00 | 0.00 | 0.00 | 75 | 1015.1 |
| 20260505151806 | 17 | 159 | 1.6 | 3.2 | 0.00 | 0.00 | 0.00 | 75 | 1015.1 |
| 20260505151304 | 17 | 159 | 3.2 | 3.2 | 0.00 | 0.00 | 0.00 | 75 | 1015.1 |
| 20260505150805 | 17 | 159 | 3.2 | 8.0 | 0.00 | 0.00 | 0.00 | 75 | 1015.2 |
| 20260505140304 | 17 | 170 | 8.0 | 14.5 | 0.00 | 0.03 | 0.00 | 75 | 1015.9 |
| 20260505130306 | 18 | 148 | 4.8 | 11.3 | 0.00 | 0.03 | 0.00 | 77 | 1016.5 |
| 20260505124804 | 18 | 110 | 4.8 | 11.3 | 0.00 | 0.03 | 0.00 | 78 | 1016.5 |
| 20260505124304 | 18 | 119 | 3.2 | 4.8 | 0.00 | 0.03 | 0.00 | 78 | 1016.5 |
| 20260505123804 | 18 | 123 | 1.6 | 11.3 | 0.00 | 0.03 | 0.00 | 79 | 1016.5 |
| 20260505123305 | 18 | 121 | 3.2 | 4.8 | 0.00 | 0.03 | 0.00 | 79 | 1016.5 |
| 20260505122804 | 18 | 120 | 3.2 | 4.8 | 0.00 | 0.03 | 0.00 | 79 | 1016.4 |
| 20260505122305 | 18 | 121 | 3.2 | 8.0 | 0.00 | 0.03 | 0.00 | 80 | 1016.4 |
| 20260505121805 | 18 | 123 | 8.0 | 12.9 | 0.00 | 0.03 | 0.00 | 80 | 1016.4 |
| 20260505121304 | 18 | 130 | 4.8 | 11.3 | 0.00 | 0.03 | 0.00 | 80 | 1016.4 |
| 20260505120805 | 18 | 132 | 4.8 | 8.0 | 0.00 | 0.03 | 0.00 | 81 | 1016.4 |
| 20260505120305 | 18 | 110 | 4.8 | 9.7 | 0.00 | 0.03 | 0.00 | 81 | 1016.5 |
| 20260505115805 | 18 | 119 | 4.8 | 8.0 | 0.00 | 0.03 | 0.00 | 81 | 1016.4 |
| 20260505115305 | 18 | 115 | 3.2 | 4.8 | 0.00 | 0.03 | 0.00 | 81 | 1016.5 |
| 20260505114804 | 18 | 117 | 4.8 | 9.7 | 0.00 | 0.03 | 0.00 | 81 | 1016.4 |
| 20260505114304 | 18 | 132 | 3.2 | 11.3 | 0.00 | 0.03 | 0.00 | 81 | 1016.5 |
| 20260505113804 | 18 | 137 | 4.8 | 11.3 | 0.00 | 0.03 | 0.00 | 81 | 1016.5 |
| 20260505113304 | 19 | 135 | 4.8 | 11.3 | 0.00 | 0.03 | 0.00 | 81 | 1016.5 |
| 20260505112805 | 19 | 153 | 4.8 | 12.9 | 0.00 | 0.03 | 0.00 | 81 | 1016.5 |
| 20260505112305 | 19 | 135 | 3.2 | 11.3 | 0.00 | 0.03 | 0.00 | 81 | 1016.5 |
| 20260505111804 | 19 | 132 | 3.2 | 8.0 | 0.00 | 0.03 | 0.00 | 81 | 1016.5 |
| 20260505111304 | 19 | 132 | 4.8 | 12.9 | 0.00 | 0.03 | 0.00 | 81 | 1016.5 |
| 20260505110804 | 19 | 127 | 6.4 | 19.3 | 0.00 | 0.03 | 0.00 | 81 | 1016.6 |
| 20260505110304 | 20 | 137 | 4.8 | 14.5 | 0.00 | 0.03 | 0.00 | 81 | 1016.6 |
| 20260505101804 | 20 | 149 | 8.0 | 11.3 | 0.00 | 0.03 | 0.00 | 79 | 1016.4 |
| 20260505101304 | 20 | 141 | 4.8 | 12.9 | 0.00 | 0.03 | 0.00 | 79 | 1016.4 |
| 20260505100805 | 20 | 155 | 3.2 | 9.7 | 0.00 | 0.03 | 0.00 | 79 | 1016.4 |
| 20260505100304 | 20 | 151 | 3.2 | 8.0 | 0.00 | 0.03 | 0.00 | 78 | 1016.4 |
| 20260505095804 | 21 | 157 | 3.2 | 11.3 | 0.00 | 0.03 | 0.00 | 78 | 1016.3 |
| 20260505095305 | 21 | 156 | 1.6 | 3.2 | 0.00 | 0.03 | 0.00 | 78 | 1016.2 |
| 20260505094804 | 21 | 155 | 3.2 | 11.3 | 0.00 | 0.03 | 0.00 | 78 | 1016.2 |
| 20260505094305 | 21 | 126 | 3.2 | 4.8 | 0.00 | 0.03 | 0.00 | 77 | 1016.1 |
| 20260505093804 | 21 | 124 | 1.6 | 8.0 | 0.00 | 0.03 | 0.00 | 77 | 1016.0 |
| 20260505093305 | 21 | 128 | 6.4 | 11.3 | 0.00 | 0.03 | 0.00 | 77 | 1015.9 |
| 20260505092805 | 21 | 124 | 4.8 | 11.3 | 0.00 | 0.03 | 0.00 | 77 | 1015.9 |
| 20260505092305 | 21 | 110 | 4.8 | 9.7 | 0.00 | 0.03 | 0.00 | 76 | 1015.8 |
| 20260505091804 | 21 | 107 | 4.8 | 9.7 | 0.00 | 0.03 | 0.00 | 75 | 1015.7 |
| 20260505091305 | 21 | 101 | 4.8 | 11.3 | 0.00 | 0.03 | 0.00 | 75 | 1015.7 |
| 20260505090805 | 21 | 111 | 1.6 | 4.8 | 0.00 | 0.03 | 0.00 | 75 | 1015.6 |
| 20260505090304 | 21 | 111 | 3.2 | 9.7 | 0.00 | 0.03 | 0.00 | 74 | 1015.5 |
| 20260505085804 | 22 | 110 | 3.2 | 4.8 | 0.00 | 0.03 | 0.00 | 74 | 1015.4 |
| 20260505085305 | 22 | 111 | 4.8 | 12.9 | 0.00 | 0.03 | 0.00 | 74 | 1015.3 |
| 20260505084805 | 22 | 111 | 4.8 | 11.3 | 0.00 | 0.03 | 0.00 | 73 | 1015.2 |
| 20260505084304 | 22 | 113 | 4.8 | 11.3 | 0.00 | 0.03 | 0.00 | 73 | 1015.1 |
| 20260505083804 | 22 | 114 | 3.2 | 9.7 | 0.00 | 0.03 | 0.00 | 72 | 1015.0 |
| 20260505083305 | 22 | 113 | 4.8 | 9.7 | 0.00 | 0.03 | 0.00 | 72 | 1014.9 |
| 20260505082305 | 22 | 109 | 6.4 | 11.3 | 0.00 | 0.03 | 0.00 | 72 | 1014.8 |
| 20260505081804 | 22 | 121 | 6.4 | 12.9 | 0.00 | 0.03 | 0.00 | 71 | 1014.7 |
| 20260505081304 | 22 | 119 | 4.8 | 8.0 | 0.00 | 0.03 | 0.00 | 71 | 1014.7 |
| 20260505080804 | 23 | 126 | 3.2 | 8.0 | 0.00 | 0.03 | 0.00 | 70 | 1014.7 |
| 20260505080305 | 23 | 126 | 4.8 | 12.9 | 0.00 | 0.03 | 0.00 | 70 | 1014.7 |
| 20260505075804 | 23 | 140 | 6.4 | 19.3 | 0.00 | 0.03 | 0.00 | 69 | 1014.6 |
| 20260505075304 | 23 | 123 | 9.7 | 16.1 | 0.00 | 0.03 | 0.00 | 69 | 1014.5 |
| 20260505074805 | 23 | 108 | 8.0 | 14.5 | 0.00 | 0.03 | 0.00 | 69 | 1014.5 |
| 20260505073804 | 23 | 133 | 8.0 | 12.9 | 0.00 | 0.03 | 0.00 | 68 | 1014.4 |
| 20260505073304 | 24 | 133 | 8.0 | 16.1 | 0.00 | 0.03 | 0.00 | 67 | 1014.4 |
| 20260505072804 | 24 | 134 | 8.0 | 11.3 | 0.00 | 0.03 | 0.00 | 67 | 1014.3 |
| 20260505072305 | 24 | 117 | 8.0 | 11.3 | 0.00 | 0.03 | 0.00 | 66 | 1014.2 |
| 20260505071805 | 25 | 128 | 8.0 | 19.3 | 0.00 | 0.03 | 0.00 | 66 | 1014.1 |
| 20260505071305 | 25 | 131 | 8.0 | 19.3 | 0.00 | 0.03 | 0.00 | 65 | 1014.1 |
| 20260505070305 | 26 | 3 | 0.0 | 0.0 | 0.00 | 0.03 | 0.00 | 60 | 1014.0 |
| 20260505065305 | 26 | 7 | 4.8 | 8.0 | 0.00 | 0.03 | 0.00 | 60 | 1013.9 |
| 20260505064804 | 26 | 158 | 8.0 | 8.0 | 0.00 | 0.03 | 0.00 | 60 | 1013.7 |
| 20260505064305 | 26 | 158 | 8.0 | 19.3 | 0.00 | 0.03 | 0.00 | 60 | 1013.7 |
| 20260505063804 | 26 | 156 | 12.9 | 19.3 | 0.00 | 0.03 | 0.00 | 60 | 1013.6 |
| 20260505063304 | 26 | 140 | 11.3 | 20.9 | 0.00 | 0.03 | 0.00 | 61 | 1013.6 |
| 20260505062804 | 26 | 136 | 9.7 | 20.9 | 0.00 | 0.03 | 0.00 | 63 | 1013.5 |
| 20260505061305 | 25 | 131 | 9.7 | 19.3 | 0.00 | 0.03 | 0.00 | 63 | 1013.5 |
| 20260505060305 | 27 | 3 | 0.0 | 0.0 | 0.00 | 0.03 | 0.00 | 61 | 1013.4 |
| 20260505055804 | 27 | 3 | 0.0 | 0.0 | 0.00 | 0.03 | 0.00 | 61 | 1013.4 |
| 20260505054804 | 27 | 3 | 0.0 | 0.0 | 0.00 | 0.03 | 0.00 | 61 | 1013.3 |
| 20260505053805 | 27 | 6 | 3.2 | 4.8 | 0.00 | 0.03 | 0.00 | 61 | 1013.2 |
| 20260505053304 | 27 | 108 | 4.8 | 4.8 | 0.00 | 0.03 | 0.00 | 61 | 1013.0 |
| 20260505052804 | 27 | 108 | 8.0 | 22.5 | 0.00 | 0.03 | 0.00 | 61 | 1013.0 |
| 20260505052304 | 27 | 80 | 11.3 | 19.3 | 0.00 | 0.03 | 0.00 | 60 | 1013.0 |
| 20260505051804 | 27 | 93 | 11.3 | 19.3 | 0.00 | 0.03 | 0.00 | 60 | 1012.9 |
| 20260505050305 | 27 | 152 | 9.7 | 16.1 | 0.00 | 0.03 | 0.00 | 58 | 1013.0 |
| 20260505041304 | 27 | 134 | 4.8 | 4.8 | 0.00 | 0.03 | 0.00 | 57 | 1013.3 |
| 20260505040804 | 27 | 148 | 4.8 | 4.8 | 0.00 | 0.03 | 0.00 | 57 | 1013.2 |
| 20260505035804 | 27 | 102 | 14.5 | 14.5 | 0.00 | 0.03 | 0.00 | 57 | 1013.4 |
| 20260505035304 | 27 | 131 | 6.4 | 16.1 | 0.00 | 0.03 | 0.00 | 57 | 1013.4 |
| 20260505034805 | 27 | 97 | 9.7 | 14.5 | 0.00 | 0.03 | 0.00 | 58 | 1013.5 |
| 20260505034305 | 27 | 135 | 9.7 | 20.9 | 0.00 | 0.03 | 0.00 | 58 | 1013.5 |
| 20260505033306 | 27 | 171 | 11.3 | 16.1 | 0.00 | 0.03 | 0.00 | 59 | 1013.7 |
| 20260505032804 | 27 | 100 | 8.0 | 14.5 | 0.00 | 0.03 | 0.00 | 59 | 1013.8 |
| 20260505032304 | 27 | 132 | 9.7 | 14.5 | 0.00 | 0.03 | 0.00 | 59 | 1013.7 |
| 20260505031804 | 27 | 162 | 12.9 | 19.3 | 0.00 | 0.03 | 0.00 | 60 | 1013.8 |
| 20260505030305 | 27 | 136 | 6.4 | 19.3 | 0.00 | 0.03 | 0.00 | 61 | 1014.1 |
| 20260505025805 | 27 | 118 | 11.3 | 16.1 | 0.00 | 0.03 | 0.00 | 61 | 1014.2 |
| 20260505025305 | 27 | 157 | 8.0 | 16.1 | 0.00 | 0.03 | 0.00 | 61 | 1014.4 |
| 20260505024805 | 27 | 128 | 12.9 | 19.3 | 0.00 | 0.03 | 0.00 | 63 | 1014.6 |
| 20260505024305 | 27 | 115 | 4.8 | 9.7 | 0.00 | 0.03 | 0.00 | 63 | 1014.7 |
| 20260505023804 | 27 | 117 | 4.8 | 14.5 | 0.00 | 0.03 | 0.00 | 62 | 1014.8 |
| 20260505022806 | 27 | 109 | 8.0 | 19.3 | 0.00 | 0.03 | 0.00 | 62 | 1014.9 |
| 20260505022306 | 27 | 111 | 6.4 | 12.9 | 0.00 | 0.03 | 0.00 | 62 | 1014.9 |
| 20260505021804 | 27 | 127 | 4.8 | 12.9 | 0.00 | 0.03 | 0.00 | 62 | 1015.1 |
| 20260505021305 | 27 | 146 | 8.0 | 16.1 | 0.00 | 0.03 | 0.00 | 62 | 1015.1 |
| 20260505020804 | 26 | 131 | 11.3 | 19.3 | 0.00 | 0.03 | 0.00 | 62 | 1015.2 |
| 20260505015804 | 26 | 167 | 12.9 | 19.3 | 0.00 | 0.03 | 0.00 | 63 | 1015.3 |
| 20260505014804 | 26 | 158 | 11.3 | 19.3 | 0.00 | 0.03 | 0.00 | 64 | 1015.4 |
| 20260505014307 | 26 | 142 | 4.8 | 19.3 | 0.00 | 0.03 | 0.00 | 65 | 1015.5 |
| 20260505013804 | 26 | 146 | 11.3 | 19.3 | 0.00 | 0.03 | 0.00 | 65 | 1015.6 |
| 20260505013304 | 25 | 130 | 9.7 | 20.9 | 0.00 | 0.03 | 0.00 | 66 | 1015.7 |
| 20260505012804 | 25 | 135 | 11.3 | 20.9 | 0.00 | 0.03 | 0.00 | 66 | 1015.8 |
| 20260505012305 | 25 | 130 | 11.3 | 19.3 | 0.00 | 0.03 | 0.00 | 65 | 1015.9 |
| 20260505011805 | 26 | 115 | 9.7 | 19.3 | 0.00 | 0.03 | 0.00 | 67 | 1015.9 |
| 20260505011304 | 25 | 159 | 12.9 | 19.3 | 0.00 | 0.03 | 0.00 | 68 | 1015.9 |
| 20260505010304 | 25 | 111 | 12.9 | 19.3 | 0.00 | 0.03 | 0.00 | 71 | 1016.0 |
| 20260505005805 | 25 | 143 | 9.7 | 20.9 | 0.00 | 0.03 | 0.00 | 71 | 1016.1 |
| 20260505005305 | 25 | 113 | 11.3 | 19.3 | 0.00 | 0.03 | 0.00 | 71 | 1016.2 |
| 20260505004806 | 25 | 135 | 12.9 | 20.9 | 0.00 | 0.03 | 0.00 | 72 | 1016.2 |
| 20260505004304 | 24 | 125 | 9.7 | 19.3 | 0.00 | 0.03 | 0.00 | 73 | 1016.3 |
| 20260505003804 | 24 | 161 | 8.0 | 11.3 | 0.00 | 0.03 | 0.00 | 74 | 1016.3 |
| 20260505003304 | 24 | 6 | 0.0 | 4.8 | 0.00 | 0.03 | 0.00 | 75 | 1016.4 |
| 20260505002305 | 24 | 3 | 0.0 | 0.0 | 0.00 | 0.03 | 0.00 | 75 | 1016.5 |
| 20260505001804 | 24 | 106 | 4.8 | 4.8 | 0.00 | 0.03 | 0.00 | 75 | 1016.5 |
| 20260505000805 | 24 | 131 | 3.2 | 4.8 | 0.00 | 0.03 | 0.00 | 75 | 1016.6 |
| 20260505000305 | 23 | 131 | 3.2 | 4.8 | 0.00 | 0.03 | 0.00 | 75 | 1016.7 |
| 20260504235804 | 23 | 134 | 4.8 | 14.5 | 0.00 | 0.03 | 0.00 | 75 | 1016.6 |
| 20260504235305 | 23 | 80 | 4.8 | 11.3 | 0.00 | 0.03 | 0.00 | 76 | 1016.7 |
| 20260504234805 | 23 | 165 | 3.2 | 12.9 | 0.00 | 0.03 | 0.00 | 76 | 1016.7 |
| 20260504234304 | 23 | 117 | 1.6 | 12.9 | 0.00 | 0.03 | 0.00 | 77 | 1016.7 |
| 20260504233806 | 23 | 150 | 0.0 | 4.8 | 0.00 | 0.03 | 0.00 | 77 | 1016.7 |
| 20260504232804 | 23 | 139 | 8.0 | 16.1 | 0.00 | 0.03 | 0.00 | 77 | 1016.6 |
| 20260504232304 | 23 | 140 | 6.4 | 16.1 | 0.00 | 0.03 | 0.00 | 78 | 1016.5 |
| 20260504231804 | 22 | 106 | 8.0 | 14.5 | 0.00 | 0.03 | 0.00 | 78 | 1016.5 |
| 20260504231304 | 22 | 123 | 9.7 | 16.1 | 0.00 | 0.03 | 0.00 | 79 | 1016.5 |
| 20260504230816 | 22 | 116 | 4.8 | 11.3 | 0.00 | 0.03 | 0.00 | 79 | 1016.4 |
| 20260504230304 | 22 | 111 | 4.8 | 12.9 | 0.00 | 0.03 | 0.00 | 79 | 1016.5 |
| 20260504225804 | 22 | 113 | 9.7 | 11.3 | 0.00 | 0.03 | 0.03 | 80 | 1016.4 |
| 20260504225304 | 21 | 149 | 6.4 | 11.3 | 0.00 | 0.03 | 0.03 | 80 | 1016.4 |
| 20260504224804 | 21 | 138 | 9.7 | 16.1 | 0.00 | 0.03 | 0.03 | 80 | 1016.4 |
| 20260504224304 | 21 | 109 | 8.0 | 12.9 | 0.00 | 0.03 | 0.03 | 81 | 1016.4 |